カタログに戻る

FREGAT DEB

運用中UNKNOWN
NORAD 45872·DEBRIS·🇷🇺 Russia

打ち上げ Jul 18, 2011 から Baikonur Cosmodrome

Loading…

次のパス (今後24時間)

TLE

最新Source: Space-Track

元期: Sep 14, 2026, 04:34 UTC

1 45872U 11037CW  26257.19030076  .00025416  00000-0  29572+0 0  9998
2 45872  51.2072 183.9254 1319478 135.0369 236.5197 10.68664181242087

AllMySatでFREGAT DEBをリアルタイム追跡

Download on the App Store